Weather in Kodino

Russia / Arkhangel'skaya Oblast'     63°43′15″N   39°38′36″E
temp.,
°C
wind,
m/s
gust,
m/s
humid.,
%
clouds,
%
prec.,
mm/h
press.,
hPa
HPBL,
m
28 november, sun
sun2800:00−15ene1298100 0.0 101126
03:00−14ene2597100 0.0 101197
06:00−13ne2996100 0.0 1009210
09:00−13ne3994100 0.0 1008241
12:00−13nne3992100 0.0 1008280
15:00−13nne3992100 0.0 1007279
18:00−14nne3893100 0.0 1007276
21:00−14n3893100 0.0 1007276
29 november, mon
mon2900:00−14n2894100 0.0 1008253
03:00−15nw1397100 0.0 101062
06:00−16wnw1198100 0.0 101128
09:00−15nnw1298100 0.0 101342
12:00−13nne169696 0.0 1014192
15:00−16ne119858 0.0 101512
18:00−17ene259797 0.0 101571
21:00−16ene2896100 0.0 1013161
30 november, tue
tue3000:00−14ene31291100 0.0 1011287
03:00−12ene41583100 0.0 1008474
06:00−12ene51583100 0.0 1003537
09:00−12ene51585100 0.0 999545
12:00−11ene61586100 0.0 994540
15:00−11ene61691100 0.1 989584
18:00−10ne61691100 0.3 985682
21:00−9ne51491100 0.4 981728
1 december, wed
wed100:00−9ne51291100 0.3 979706
03:00−9ne4119199 0.5 978629
06:00−8nne41094100 0.3 978579
09:00−8nne3994100 0.7 979518
12:00−8nne3794100 0.7 980449
15:00−8nne2595100 1.3 981351
18:00−8n1396100 0.7 982246
21:00−9nw119880 1.1 98320
2 december, thu
thu200:00−11wsw1198100 0.2 98413
03:00−11sw249797 0.3 98598
06:00−11ssw139891 0.1 98682
09:00−11ssw129891 0.2 98764
12:00−11ssw149782 0.1 989131
15:00−14ssw129986 0.1 99129
18:00−15ssw129999 0.0 99240
21:00−17ssw119999 0.1 9949